COSMOS 2058

Last updated on Tue Sep 16 2025 00:02:14 GMT+0000 (Coordinated Universal Time)

1 20465U 90010A 25258.35613418 .00005419 00000+0 33653-3 0 9991 2 20465 82.4747 219.8784 0008831 205.6184 154.4609 15.09466334915775
UTC large
Height (km)
Speed (km/s)
/
Latitude / Longitude
Inclination (degrees)
Orbital Period (minutes)
Azimuth
Elevation
Range (km)
Doppler Factor

Next 0 passes for location: London (51.5072 / 0.1276)

Sorry there are no passes over London.